Flag for U.S.A. Weather past 2 weeks in Alexandria, Virginia, U.S.A.

Now
60 °F

Mostly cloudy.


Feels Like: 60 °F
Forecast: 54 / 66 °F
Wind: 20 mph from Northwest

Location: Reagan National Airport

Current Time: Apr 21, 2015 at 6:35:47 AM

Latest Report: Apr 21, 2015 at 5:52 AM


Visibility: 10 mi

Pressure: 29.71 "Hg

Humidity: 49%

Dew point: 41 °F

Location of AlexandriaLocation

Historic Weather in Alexandria — Graph

°F

Alexandria temperature yesterday

Maximum temperature yesterday: 79 °F (at 4:52 PM)
Minimum temperature yesterday: 57 °F (at 12:52 AM)
Average temperature yesterday: 69 °F

Past Weeks' High & Low Weather Summary

 TemperatureHumidityPressure
High83 °F (Apr 18, 4:52 PM)90% (Apr 10, 1:52 AM)30.43 "Hg (Apr 10, 1:52 AM)
Low45 °F (Apr 9, 4:00 AM)19% (Apr 6, 1:52 PM)29.50 "Hg (Apr 20, 7:52 PM)
Average61 °F62%30.11 "Hg
* Reported Apr 6 4:52 AM — Apr 21 4:52 AM, Alexandria, Weather by CustomWeather, © 2015

Note: Actual official high and low records may vary slightly from our data, if they occured in-between our weather recording intervals... More about our weather records

Advertising

Alexandria weather history for previous 24 hours

 ConditionsComfort  
Time TempWeatherWind HumidityBarometerVisibility
4:52 AM
Tue, Apr 21
60 °FLight rain. Overcast.18 mph60%29.67 "Hg10 mi
3:52 AM63 °FPassing clouds.13 mph75%29.64 "Hg10 mi
2:52 AM62 °FMostly cloudy.3 mph83%29.62 "Hg10 mi
1:52 AM62 °FThunderstorms. Overcast.5 mph80%29.60 "Hg10 mi
12:56 AM66 °FThunderstorms. Mostly cloudy.10 mph73%29.60 "Hg10 mi
11:52 PM
Mon, Apr 20
64 °FPassing clouds.6 mph78%29.56 "Hg10 mi
10:52 PM65 °FPartly cloudy.10 mph76%29.55 "Hg10 mi
9:52 PM65 °FPartly cloudy.10 mph73%29.55 "Hg10 mi
8:52 PM66 °FLight rain. Partly cloudy.10 mph78%29.52 "Hg10 mi
7:52 PM75 °FPartly sunny.15 mph62%29.50 "Hg10 mi
6:52 PM72 °FBroken clouds.7 mph76%29.52 "Hg10 mi
5:52 PM72 °FStrong thunderstorms. Partly sunny.16 mph73%29.54 "Hg8 mi
4:52 PM79 °FLight rain. Broken clouds.15 mph50%29.54 "Hg10 mi
3:52 PM77 °FBroken clouds.12 mph58%29.56 "Hg10 mi
2:52 PM78 °FMore clouds than sun.14 mph56%29.57 "Hg10 mi
1:52 PM78 °FMore clouds than sun.16 mph52%29.60 "Hg10 mi
12:52 PM76 °FMore clouds than sun.7 mph62%29.62 "Hg10 mi
11:52 AM74 °FBroken clouds.9 mph67%29.65 "Hg10 mi
10:52 AM72 °FPartly sunny.10 mph71%29.67 "Hg10 mi
9:52 AM70 °FCloudy.6 mph79%29.68 "Hg10 mi
9:02 AM70 °FMostly cloudy.9 mph83%29.67 "Hg10 mi
7:52 AM67 °FLight rain. Mostly cloudy.8 mph90%29.66 "Hg10 mi
6:52 AM67 °FLight rain. Mostly cloudy.8 mph87%29.66 "Hg7 mi
6:03 AM66 °FLight rain. Overcast.13 mph88%29.65 "Hg10 mi
Weather by CustomWeather, © 2015

See weather overviewHow to use our weather pages